EW4337 Weather Reports


Display with metric or nautical units.
time (UTC)temp
F
wind
direction
speed
MPH
gust
MPH
rain 1hr
in
rain 24hr
in
rain mn
in
humidity
%
barometer
mb
20260906141202 71 134 1.0 5.0 0.00 0.00 0.00 67 1023.2
20260906140203 70 137 4.0 9.0 0.00 0.00 0.00 66 1023.3
20260906135702 70 127 2.0 7.0 0.00 0.00 0.00 66 1023.3
20260906135203 70 157 4.0 9.0 0.00 0.00 0.00 65 1023.4
20260906134702 71 210 2.0 3.0 0.00 0.00 0.00 65 1023.5
20260906134202 71 194 2.0 9.0 0.00 0.00 0.00 64 1023.6
20260906133702 72 127 5.0 12.0 0.00 0.00 0.00 61 1023.6
20260906133202 72 215 6.0 12.0 0.00 0.00 0.00 61 1023.6
20260906132703 72 240 3.0 9.0 0.00 0.00 0.00 63 1023.6
20260906131203 72 172 5.0 12.0 0.00 0.00 0.00 62 1023.5
20260906130702 72 148 4.0 12.0 0.00 0.00 0.00 63 1023.5
20260906125702 73 130 9.0 13.0 0.00 0.00 0.00 62 1023.6
20260906124702 73 113 6.0 13.0 0.00 0.00 0.00 62 1023.6
20260906124203 72 140 7.0 16.0 0.00 0.00 0.00 62 1023.8
20260906123702 72 128 7.0 14.0 0.00 0.00 0.00 63 1023.8
20260906123202 72 135 8.0 12.0 0.00 0.00 0.00 64 1023.8
20260906122703 72 233 5.0 12.0 0.00 0.00 0.00 62 1023.7
20260906122203 73 170 6.0 12.0 0.00 0.00 0.00 63 1023.8
20260906121703 72 151 3.0 10.0 0.00 0.00 0.00 63 1023.8
20260906121202 71 168 5.0 16.0 0.00 0.00 0.00 61 1023.9
20260906120702 71 166 5.0 8.0 0.00 0.00 0.00 62 1023.9
20260906120203 70 158 7.0 13.0 0.00 0.00 0.00 63 1024.0
20260906115703 71 120 6.0 13.0 0.00 0.00 0.00 63 1024.0
20260906115202 69 131 4.0 8.0 0.00 0.00 0.00 68 1024.0
20260906114703 69 169 1.0 5.0 0.00 0.00 0.00 69 1024.1
20260906114203 69 213 3.0 6.0 0.00 0.00 0.00 67 1024.2
20260906113702 70 182 5.0 10.0 0.00 0.00 0.00 67 1024.2
20260906113203 69 166 2.0 6.0 0.00 0.00 0.00 67 1024.2
20260906112705 69 162 5.0 10.0 0.00 0.00 0.00 68 1024.2
20260906112203 69 214 3.0 8.0 0.00 0.00 0.00 69 1024.3
20260906111703 68 160 2.0 6.0 0.00 0.00 0.00 69 1024.3
20260906111202 68 150 3.0 5.0 0.00 0.00 0.00 70 1024.5
20260906110703 69 164 2.0 7.0 0.00 0.00 0.00 68 1024.5
20260906105703 69 161 3.0 8.0 0.00 0.00 0.00 68 1024.5
20260906105203 70 188 3.0 9.0 0.00 0.00 0.00 68 1024.7
20260906104702 70 225 4.0 12.0 0.00 0.00 0.00 66 1024.8
20260906104202 69 138 6.0 10.0 0.00 0.00 0.00 69 1024.9
20260906103203 68 215 3.0 7.0 0.00 0.00 0.00 70 1025.0
20260906102703 69 182 5.0 12.0 0.00 0.00 0.00 68 1024.9
20260906102202 69 206 5.0 10.0 0.00 0.00 0.00 69 1024.9
20260906101703 69 164 5.0 12.0 0.00 0.00 0.00 69 1025.0
20260906101203 68 208 4.0 7.0 0.00 0.00 0.00 71 1025.0
20260906100703 67 238 3.0 12.0 0.00 0.00 0.00 72 1025.0
20260906100203 67 166 4.0 8.0 0.00 0.00 0.00 73 1025.0
20260906095703 67 182 3.0 6.0 0.00 0.00 0.00 73 1025.1
20260906095202 68 160 5.0 10.0 0.00 0.00 0.00 73 1025.1
20260906094703 67 246 3.0 6.0 0.00 0.00 0.00 74 1025.1
20260906094203 66 205 2.0 8.0 0.00 0.00 0.00 74 1025.1
20260906093703 66 170 3.0 7.0 0.00 0.00 0.00 74 1025.1
20260906093203 67 170 3.0 9.0 0.00 0.00 0.00 74 1025.2
20260906092703 66 173 2.0 8.0 0.00 0.00 0.00 75 1025.3
20260906092203 66 200 3.0 7.0 0.00 0.00 0.00 75 1025.3
20260906091703 67 186 4.0 9.0 0.00 0.00 0.00 75 1025.3
20260906091203 67 230 3.0 9.0 0.00 0.00 0.00 75 1025.4
20260906090704 66 194 3.0 10.0 0.00 0.00 0.00 77 1025.5
20260906085703 64 232 7.0 12.0 0.00 0.00 0.00 78 1025.6
20260906085204 64 235 3.0 12.0 0.00 0.00 0.00 81 1025.5
20260906084703 63 236 4.0 8.0 0.00 0.00 0.00 81 1025.6
20260906084203 63 224 3.0 6.0 0.00 0.00 0.00 82 1025.5
20260906083204 62 241 3.0 6.0 0.00 0.00 0.00 84 1025.5
20260906082703 62 222 3.0 5.0 0.00 0.00 0.00 85 1025.6
20260906082203 61 179 2.0 7.0 0.00 0.00 0.00 86 1025.6
20260906081704 61 225 2.0 5.0 0.00 0.00 0.00 87 1025.6
20260906081203 61 211 2.0 5.0 0.00 0.00 0.00 87 1025.5
20260906080703 60 218 1.0 5.0 0.00 0.00 0.00 89 1025.5
20260906075204 59 155 1.0 3.0 0.00 0.00 0.00 91 1025.4
20260906074703 58 196 1.0 6.0 0.00 0.00 0.00 92 1025.4
20260906074203 58 163 2.0 6.0 0.00 0.00 0.00 93 1025.3
20260906073704 57 192 2.0 7.0 0.00 0.00 0.00 94 1025.2
20260906073204 57 186 1.0 3.0 0.00 0.00 0.00 95 1025.3
20260906072703 57 178 0.0 3.0 0.00 0.00 0.00 95 1025.3
20260906071703 56 163 1.0 3.0 0.00 0.00 0.00 95 1025.3
20260906071203 55 169 0.0 6.0 0.00 0.00 0.00 96 1025.2
20260906070703 55 160 1.0 6.0 0.00 0.00 0.00 96 1025.1
20260906070204 55 186 1.0 3.0 0.00 0.00 0.00 96 1025.2
20260906065703 54 165 2.0 5.0 0.00 0.00 0.00 96 1025.2
20260906065203 54 164 1.0 3.0 0.00 0.00 0.00 96 1025.1
20260906064704 53 157 1.0 3.0 0.00 0.00 0.00 96 1025.1
20260906064204 53 169 2.0 5.0 0.00 0.00 0.00 96 1025.1
20260906063703 53 159 1.0 3.0 0.00 0.00 0.00 96 1025.1
20260906063204 53 192 2.0 5.0 0.00 0.00 0.00 95 1025.1
20260906062203 52 169 1.0 3.0 0.00 0.00 0.00 95 1025.1
20260906061704 52 170 0.0 2.0 0.00 0.00 0.00 95 1025.0
20260906061204 51 165 0.0 1.0 0.00 0.00 0.00 95 1025.1
20260906060704 51 152 0.0 1.0 0.00 0.01 0.00 95 1025.1
20260906060204 51 171 0.0 0.0 0.00 0.01 0.00 95 1025.1
20260906055705 51 171 0.0 1.0 0.00 0.01 0.00 95 1025.0
20260906055204 51 161 0.0 2.0 0.00 0.01 0.00 95 1025.0
20260906054704 51 150 0.0 2.0 0.00 0.01 0.00 94 1025.0
20260906054204 51 182 0.0 0.0 0.00 0.01 0.00 94 1024.9
20260906053704 51 182 0.0 0.0 0.00 0.01 0.00 94 1024.9
20260906053204 51 182 0.0 1.0 0.00 0.01 0.00 94 1024.9
20260906052704 51 182 0.0 2.0 0.00 0.01 0.00 94 1024.9
20260906052204 51 204 0.0 1.0 0.00 0.01 0.00 94 1024.8
20260906051204 50 169 1.0 5.0 0.00 0.01 0.00 94 1024.7
20260906050704 50 174 0.0 1.0 0.00 0.01 0.00 94 1024.7
20260906050204 50 190 0.0 0.0 0.00 0.01 0.00 94 1024.6
20260906045703 50 188 1.0 2.0 0.00 0.01 0.00 94 1024.5
20260906045204 51 211 1.0 2.0 0.00 0.01 0.00 94 1024.6
20260906044203 51 177 0.0 2.0 0.00 0.02 0.00 94 1024.5
20260906043702 51 179 1.0 2.0 0.00 0.02 0.00 94 1024.6
20260906042703 51 173 0.0 3.0 0.00 0.02 0.00 94 1024.6
20260906042203 50 170 0.0 2.0 0.00 0.02 0.00 93 1024.7
20260906041703 50 176 0.0 0.0 0.00 0.02 0.00 93 1024.7
20260906040703 51 176 0.0 0.0 0.00 0.02 0.00 93 1024.9
20260906040203 51 176 0.0 0.0 0.00 0.02 0.00 93 1024.7
20260906035702 51 176 0.0 0.0 0.00 0.02 0.00 93 1024.7
20260906035203 51 176 0.0 0.0 0.00 0.02 0.00 93 1024.8
20260906034203 51 225 0.0 0.0 0.00 0.02 0.00 93 1024.9
20260906033703 51 225 0.0 2.0 0.00 0.02 0.00 93 1025.0
20260906033203 51 173 0.0 1.0 0.00 0.02 0.00 93 1025.0
20260906032703 51 173 0.0 1.0 0.00 0.02 0.00 93 1025.0
20260906032203 51 173 1.0 3.0 0.00 0.02 0.00 93 1024.9
20260906031703 51 157 2.0 3.0 0.00 0.02 0.00 92 1024.8
20260906031203 51 217 0.0 3.0 0.00 0.02 0.00 92 1024.9
20260906030703 51 215 0.0 3.0 0.00 0.02 0.00 92 1024.9
20260906030203 51 215 0.0 1.0 0.00 0.02 0.00 92 1024.8
20260906025703 51 215 0.0 2.0 0.00 0.02 0.00 92 1024.9
20260906025203 51 195 1.0 3.0 0.00 0.02 0.00 92 1024.9
20260906024703 51 177 0.0 3.0 0.00 0.02 0.00 92 1024.9
20260906024204 51 196 0.0 1.0 0.00 0.02 0.00 92 1024.9
20260906023203 52 204 0.0 0.0 0.00 0.02 0.00 92 1025.0
20260906022703 52 208 0.0 0.0 0.00 0.02 0.00 92 1024.9
20260906022204 52 212 0.0 0.0 0.00 0.02 0.00 92 1024.9
20260906021703 52 232 0.0 1.0 0.00 0.02 0.00 91 1025.0
20260906021204 52 210 1.0 3.0 0.00 0.02 0.00 91 1024.9
20260906020703 52 208 0.0 0.0 0.00 0.02 0.00 91 1024.9
20260906015704 52 217 0.0 0.0 0.00 0.02 0.00 91 1024.7
20260906015203 52 218 0.0 0.0 0.00 0.02 0.00 90 1024.7
20260906014703 52 218 0.0 0.0 0.00 0.02 0.00 90 1024.7
20260906013703 52 218 0.0 0.0 0.00 0.02 0.00 90 1024.6
20260906013204 52 212 0.0 2.0 0.00 0.02 0.00 90 1024.7
20260906012703 52 217 0.0 2.0 0.00 0.02 0.00 89 1024.8
20260906012203 52 221 0.0 1.0 0.00 0.02 0.00 89 1024.8
20260906011703 52 221 0.0 1.0 0.00 0.02 0.00 89 1024.8
20260906011203 53 221 0.0 0.0 0.00 0.02 0.00 89 1024.7
20260906010704 53 221 0.0 0.0 0.00 0.02 0.00 89 1024.7
20260906010204 53 221 0.0 0.0 0.00 0.02 0.00 89 1024.7
20260906005203 53 221 0.0 0.0 0.00 0.02 0.00 89 1024.8
20260906004703 53 221 0.0 1.0 0.00 0.02 0.00 88 1024.8
20260906004203 53 218 0.0 1.0 0.00 0.02 0.00 88 1024.8
20260906003203 53 246 1.0 3.0 0.00 0.02 0.00 88 1024.6
20260906002703 53 244 0.0 1.0 0.00 0.02 0.00 88 1024.6
20260906001704 53 243 0.0 1.0 0.00 0.02 0.00 87 1024.6
20260906001204 54 244 0.0 1.0 0.00 0.02 0.00 87 1024.6
20260906000703 54 230 0.0 1.0 0.00 0.02 0.00 87 1024.6
20260906000204 54 233 0.0 1.0 0.00 0.02 0.00 87 1024.6
20260905235704 54 237 0.0 1.0 0.00 0.02 0.00 87 1024.6
20260905235204 54 222 0.0 3.0 0.00 0.02 0.00 87 1024.6
20260905234204 54 249 1.0 2.0 0.00 0.02 0.00 86 1024.6
20260905233704 54 241 1.0 2.0 0.00 0.02 0.00 86 1024.6
20260905233203 54 246 1.0 3.0 0.00 0.02 0.00 86 1024.6
20260905232704 54 236 2.0 3.0 0.00 0.02 0.00 86 1024.5
20260905231204 54 230 1.0 2.0 0.00 0.02 0.00 86 1024.5
20260905230704 54 248 1.0 3.0 0.00 0.02 0.00 86 1024.4
20260905230204 54 249 1.0 3.0 0.00 0.02 0.00 86 1024.5
20260905225703 54 254 2.0 3.0 0.00 0.02 0.00 85 1024.3
20260905225204 54 271 1.0 3.0 0.00 0.02 0.00 85 1024.3
20260905224704 55 244 1.0 2.0 0.00 0.02 0.00 85 1024.3
20260905224204 55 228 1.0 3.0 0.00 0.02 0.00 85 1024.3
20260905223204 55 254 1.0 3.0 0.00 0.02 0.00 85 1024.3
20260905222204 55 236 2.0 3.0 0.00 0.02 0.00 85 1024.2
20260905221204 55 252 2.0 5.0 0.00 0.02 0.00 85 1024.0
20260905220704 55 244 3.0 7.0 0.00 0.02 0.00 85 1024.1
20260905220204 55 241 1.0 7.0 0.00 0.02 0.00 85 1024.0
20260905215704 55 226 1.0 3.0 0.00 0.02 0.02 84 1023.9
20260905215203 55 237 1.0 3.0 0.00 0.02 0.02 84 1023.9
20260905214703 55 228 2.0 3.0 0.00 0.02 0.02 84 1023.8
20260905214204 55 235 1.0 3.0 0.00 0.02 0.02 84 1023.8
20260905213704 56 227 1.0 3.0 0.00 0.02 0.02 84 1023.7
20260905213204 56 250 2.0 3.0 0.00 0.02 0.02 83 1023.8
20260905212704 56 238 2.0 5.0 0.00 0.02 0.02 83 1023.8
20260905212205 56 223 1.0 3.0 0.00 0.02 0.02 83 1023.7
20260905211704 56 243 2.0 6.0 0.00 0.02 0.02 83 1023.7
20260905211204 57 243 2.0 3.0 0.00 0.02 0.02 83 1023.7
20260905210704 57 243 2.0 5.0 0.00 0.02 0.02 83 1023.6
20260905210204 57 241 3.0 5.0 0.00 0.02 0.02 83 1023.6
20260905205703 57 245 2.0 5.0 0.00 0.02 0.02 82 1023.6
20260905204704 57 251 2.0 5.0 0.00 0.02 0.02 82 1023.6
20260905204203 57 241 1.0 6.0 0.00 0.02 0.02 82 1023.6
20260905203704 57 230 2.0 5.0 0.00 0.02 0.02 82 1023.6
20260905203204 58 275 2.0 5.0 0.00 0.02 0.02 81 1023.5
20260905202704 58 262 2.0 3.0 0.00 0.02 0.02 81 1023.6
20260905202205 58 248 2.0 3.0 0.00 0.02 0.02 81 1023.6
20260905201704 58 246 2.0 5.0 0.00 0.02 0.02 81 1023.5
20260905201204 58 263 2.0 6.0 0.00 0.02 0.02 81 1023.5
20260905200705 58 258 3.0 9.0 0.00 0.02 0.02 81 1023.4
20260905200204 58 250 5.0 8.0 0.00 0.02 0.02 80 1023.4
20260905195704 58 256 3.0 7.0 0.00 0.02 0.02 80 1023.4
20260905195204 59 245 3.0 7.0 0.00 0.02 0.02 80 1023.4
20260905194205 59 237 2.0 7.0 0.00 0.02 0.02 79 1023.3
20260905193702 59 259 3.0 6.0 0.00 0.02 0.02 79 1023.2
20260905193202 59 263 2.0 6.0 0.00 0.02 0.02 79 1023.2
20260905192203 60 258 2.0 7.0 0.00 0.02 0.02 78 1023.0
20260905191702 60 252 3.0 9.0 0.00 0.02 0.02 78 1023.0
20260905191203 60 256 2.0 7.0 0.00 0.02 0.02 78 1022.9
20260905190702 60 264 2.0 8.0 0.00 0.02 0.02 78 1022.9
20260905190202 60 277 3.0 7.0 0.00 0.02 0.02 77 1022.9
20260905185702 61 277 4.0 9.0 0.00 0.02 0.02 77 1022.8
20260905185203 61 250 3.0 9.0 0.00 0.02 0.02 77 1022.8
20260905184702 61 268 5.0 10.0 0.00 0.02 0.02 77 1022.8
20260905184203 61 272 5.0 10.0 0.00 0.02 0.02 77 1022.7
20260905183702 61 259 5.0 9.0 0.00 0.02 0.02 76 1022.7
20260905183203 61 257 4.0 9.0 0.00 0.02 0.02 76 1022.7
20260905182703 61 240 4.0 9.0 0.00 0.02 0.02 76 1022.5
20260905182202 62 263 5.0 12.0 0.00 0.02 0.02 75 1022.4
20260905181704 62 273 5.0 12.0 0.00 0.02 0.02 75 1022.4
20260905181203 62 277 6.0 12.0 0.00 0.02 0.02 75 1022.3
20260905180203 62 287 7.0 13.0 0.00 0.02 0.02 74 1022.2
20260905175703 62 287 5.0 10.0 0.00 0.02 0.02 74 1022.2
20260905175203 63 266 5.0 8.0 0.00 0.02 0.02 74 1022.1
20260905174703 63 264 5.0 14.0 0.00 0.02 0.02 74 1022.1
20260905174202 63 271 5.0 10.0 0.00 0.02 0.02 74 1022.1
20260905173703 63 281 7.0 9.0 0.00 0.02 0.02 73 1022.1
20260905172204 64 268 5.0 12.0 0.00 0.02 0.02 71 1022.0
20260905171702 64 273 8.0 14.0 0.00 0.02 0.02 70 1022.0
20260905171203 64 272 9.0 15.0 0.00 0.02 0.02 70 1021.9
20260905170703 64 277 10.0 18.0 0.00 0.02 0.02 69 1021.7
20260905170203 64 260 7.0 16.0 0.00 0.02 0.02 69 1021.8
20260905165703 64 290 9.0 16.0 0.00 0.02 0.02 69 1021.7
20260905165203 65 270 8.0 14.0 0.00 0.02 0.02 68 1021.7
20260905164202 65 281 7.0 12.0 0.00 0.02 0.02 67 1021.6
20260905163702 65 295 8.0 14.0 0.00 0.02 0.02 66 1021.5
20260905163203 65 292 10.0 20.0 0.00 0.02 0.02 65 1021.4
20260905162203 66 272 12.0 23.0 0.00 0.02 0.02 63 1021.3
20260905161203 67 268 13.0 20.0 0.00 0.02 0.02 62 1021.1
20260905160703 67 260 9.0 20.0 0.00 0.02 0.02 64 1021.0
20260905160203 67 270 9.0 20.0 0.00 0.02 0.02 64 1021.0
20260905155703 67 268 10.0 20.0 0.00 0.02 0.02 62 1020.8
20260905155203 68 265 7.0 18.0 0.00 0.02 0.02 65 1020.8
20260905154702 67 294 10.0 18.0 0.00 0.02 0.02 66 1020.8
20260905153703 68 271 9.0 18.0 0.00 0.02 0.02 64 1020.7
20260905153203 68 288 13.0 21.0 0.00 0.02 0.02 64 1020.7
20260905152703 68 282 11.0 20.0 0.00 0.02 0.02 64 1020.6
20260905152203 67 284 10.0 17.0 0.00 0.02 0.02 66 1020.6
20260905151703 67 286 10.0 20.0 0.00 0.02 0.02 65 1020.5
20260905151203 67 285 12.0 22.0 0.00 0.02 0.02 65 1020.5
20260905150703 68 291 13.0 21.0 0.00 0.02 0.02 64 1020.4
20260905150204 69 274 7.0 18.0 0.00 0.02 0.02 65 1020.3
20260905145704 69 271 13.0 20.0 0.00 0.02 0.02 63 1020.3
20260905145203 69 271 10.0 25.0 0.00 0.02 0.02 64 1020.1
20260905144705 69 288 11.0 21.0 0.00 0.02 0.02 64 1020.3
20260905144203 68 289 12.0 20.0 0.00 0.02 0.02 64 1020.3
20260905143704 67 290 10.0 20.0 0.00 0.02 0.02 65 1020.2
20260905143203 67 282 10.0 26.0 0.00 0.02 0.02 65 1020.1
20260905142703 68 285 12.0 20.0 0.00 0.02 0.02 64 1020.1
20260905142204 69 294 10.0 20.0 0.00 0.02 0.02 64 1020.0
20260905141703 69 283 10.0 20.0 0.00 0.02 0.02 65 1019.8